Time,TemperatureF,DewpointF,PressureIn,WindDirection,WindDirectionDegrees,WindSpeedMPH,WindSpeedGustMPH,Humidity,HourlyPrecipIn,Conditions,Clouds,dailyrainin,SoftwareType,DateUTC
2013-06-22 00:00:00,53.3,43.7,29.49,SW,214,2.0,6.0,70,0.00,CLR,,0.00,WeatherDisplay:10.37,2013-06-21 23:00:00,
2013-06-22 00:10:00,53.5,43.9,29.48,WSW,244,0.0,6.0,70,0.00,CLR,,0.00,WeatherDisplay:10.37,2013-06-21 23:10:00,
2013-06-22 00:20:00,53.7,44.1,29.48,SE,129,2.0,14.0,70,0.00,CLR,,0.00,WeatherDisplay:10.37,2013-06-21 23:20:00,
2013-06-22 00:30:00,53.8,44.6,29.48,SSW,193,5.0,9.0,71,0.00,CLR,,0.00,WeatherDisplay:10.37,2013-06-21 23:30:00,
2013-06-22 00:40:00,53.8,44.6,29.47,ESE,118,5.0,6.0,71,0.00,CLR,,0.00,WeatherDisplay:10.37,2013-06-21 23:40:00,
2013-06-22 00:50:00,53.6,44.4,29.46,East,97,1.0,6.0,71,0.00,CLR,,0.00,WeatherDisplay:10.37,2013-06-21 23:50:00,
2013-06-22 01:00:00,53.2,44.4,29.45,ESE,119,5.0,7.0,72,0.00,CLR,,0.00,WeatherDisplay:10.37,2013-06-22 00:00:00,
2013-06-22 01:10:00,53.3,44.9,29.45,SE,130,5.0,7.0,73,0.00,CLR,,0.00,WeatherDisplay:10.37,2013-06-22 00:10:00,
2013-06-22 01:30:00,53.4,45.7,29.44,SE,142,1.0,12.0,75,0.00,CLR,,0.00,WeatherDisplay:10.37,2013-06-22 00:30:00,
2013-06-22 01:40:00,53.1,45.3,29.44,South,191,5.0,12.0,75,0.00,CLR,,0.00,WeatherDisplay:10.37,2013-06-22 00:40:00,
2013-06-22 01:50:00,52.2,44.5,29.44,WSW,239,10.0,17.0,75,0.00,CLR,,0.00,WeatherDisplay:10.37,2013-06-22 00:50:00,
2013-06-22 02:00:00,51.3,44.0,29.44,WSW,252,6.0,17.0,76,0.00,CLR,,0.00,WeatherDisplay:10.37,2013-06-22 01:00:00,
2013-06-22 02:10:00,50.4,43.8,29.44,West,272,3.0,12.0,78,0.00,CLR,,0.00,WeatherDisplay:10.37,2013-06-22 01:10:00,
2013-06-22 02:20:00,50.4,44.1,29.42,SW,218,6.0,15.0,79,0.00,CLR,,0.00,WeatherDisplay:10.37,2013-06-22 01:20:00,
2013-06-22 02:30:00,50.3,44.4,29.42,SSW,203,5.0,13.0,80,0.00,CLR,,0.00,WeatherDisplay:10.37,2013-06-22 01:30:00,
2013-06-22 02:40:00,49.9,44.3,29.41,SW,227,7.0,14.0,81,0.02,RA,,0.02,WeatherDisplay:10.37,2013-06-22 01:40:00,
2013-06-22 02:50:00,49.4,44.1,29.40,SSW,212,3.0,8.0,82,0.00,,,0.02,WeatherDisplay:10.37,2013-06-22 01:50:00,
2013-06-22 03:00:00,49.1,43.8,29.40,South,173,6.0,12.0,82,0.00,CLR,,0.02,WeatherDisplay:10.37,2013-06-22 02:00:00,
2013-06-22 03:10:00,48.7,44.1,29.39,SSE,151,3.0,12.0,84,0.00,CLR,,0.02,WeatherDisplay:10.37,2013-06-22 02:10:00,
2013-06-22 03:20:00,48.4,44.1,29.38,SE,131,2.0,12.0,85,0.00,CLR,,0.02,WeatherDisplay:10.37,2013-06-22 02:20:00,
2013-06-22 03:30:00,48.4,44.1,29.38,ESE,111,2.0,9.0,85,0.02,RA,,0.04,WeatherDisplay:10.37,2013-06-22 02:30:00,
2013-06-22 03:40:00,48.4,44.4,29.38,ESE,114,1.0,8.0,86,0.02,RA,,0.06,WeatherDisplay:10.37,2013-06-22 02:40:00,
2013-06-22 03:50:00,48.4,44.4,29.36,SE,127,5.0,7.0,86,0.02,RA,,0.08,WeatherDisplay:10.37,2013-06-22 02:50:00,
2013-06-22 04:00:00,48.6,44.9,29.36,ESE,108,7.0,9.0,87,0.02,RA,,0.10,WeatherDisplay:10.37,2013-06-22 03:00:00,
2013-06-22 04:10:00,48.6,45.2,29.35,ESE,110,3.0,7.0,88,0.00,,,0.10,WeatherDisplay:10.37,2013-06-22 03:10:00,
2013-06-22 04:20:00,48.7,45.3,29.35,East,91,5.0,6.0,88,0.00,CLR,,0.10,WeatherDisplay:10.37,2013-06-22 03:20:00,
2013-06-22 04:30:00,48.6,45.5,29.34,East,84,6.0,9.0,89,0.00,CLR,,0.10,WeatherDisplay:10.37,2013-06-22 03:30:00,
2013-06-22 04:40:00,48.7,45.6,29.34,East,93,7.0,8.0,89,0.00,CLR,,0.10,WeatherDisplay:10.37,2013-06-22 03:40:00,
2013-06-22 04:50:00,48.7,45.9,29.33,ENE,74,5.0,8.0,90,0.02,RA,,0.12,WeatherDisplay:10.37,2013-06-22 03:50:00,
2013-06-22 05:00:00,48.6,45.8,29.33,ENE,70,8.0,9.0,90,0.00,CLR,,0.12,WeatherDisplay:10.37,2013-06-22 04:00:00,
2013-06-22 05:10:00,48.7,45.9,29.32,ENE,72,6.0,8.0,90,0.00,CLR,,0.12,WeatherDisplay:10.37,2013-06-22 04:10:00,
2013-06-22 05:20:00,48.7,46.2,29.32,East,88,2.0,7.0,91,0.00,CLR,,0.12,WeatherDisplay:10.37,2013-06-22 04:20:00,
2013-06-22 05:30:00,49.1,46.3,29.32,SSE,148,1.0,5.0,90,0.00,CLR,,0.12,WeatherDisplay:10.37,2013-06-22 04:30:00,
2013-06-22 05:40:00,49.5,46.6,29.32,South,182,0.0,4.0,90,0.00,CLR,,0.12,WeatherDisplay:10.37,2013-06-22 04:40:00,
2013-06-22 05:50:00,49.6,47.1,29.31,SSW,197,1.0,4.0,91,0.00,CLR,,0.12,WeatherDisplay:10.37,2013-06-22 04:50:00,
2013-06-22 06:00:00,50.2,47.7,29.31,WSW,243,0.0,6.0,91,0.00,CLR,,0.12,WeatherDisplay:10.37,2013-06-22 05:00:00,
2013-06-22 06:10:00,50.5,47.9,29.30,SW,215,0.0,8.0,91,0.00,CLR,,0.12,WeatherDisplay:10.37,2013-06-22 05:10:00,
2013-06-22 06:20:00,51.3,48.7,29.30,ESE,121,2.0,3.0,91,0.00,CLR,,0.12,WeatherDisplay:10.37,2013-06-22 05:20:00,
2013-06-22 06:30:00,52.0,49.4,29.30,South,173,0.0,3.0,91,0.00,CLR,,0.12,WeatherDisplay:10.37,2013-06-22 05:30:00,
2013-06-22 06:40:00,52.3,49.8,29.29,SE,143,3.0,7.0,91,0.00,CLR,,0.12,WeatherDisplay:10.37,2013-06-22 05:40:00,
2013-06-22 06:50:00,52.0,49.4,29.29,East,91,3.0,7.0,91,0.00,CLR,,0.12,WeatherDisplay:10.37,2013-06-22 05:50:00,
2013-06-22 07:00:00,51.7,48.8,29.29,East,89,2.0,4.0,90,0.00,CLR,,0.12,WeatherDisplay:10.37,2013-06-22 06:00:00,
2013-06-22 07:10:00,51.4,48.6,29.28,East,95,2.0,5.0,90,0.00,CLR,,0.12,WeatherDisplay:10.37,2013-06-22 06:10:00,
2013-06-22 07:20:00,51.3,48.4,29.28,East,89,3.0,6.0,90,0.00,CLR,,0.12,WeatherDisplay:10.37,2013-06-22 06:20:00,
2013-06-22 07:30:00,51.2,48.3,29.27,East,88,5.0,6.0,90,0.02,RA,,0.14,WeatherDisplay:10.37,2013-06-22 06:30:00,
2013-06-22 07:40:00,51.1,48.2,29.27,East,92,1.0,6.0,90,0.00,CLR,,0.14,WeatherDisplay:10.37,2013-06-22 06:40:00,
2013-06-22 07:50:00,51.3,48.4,29.27,East,96,0.0,4.0,90,0.00,CLR,,0.14,WeatherDisplay:10.37,2013-06-22 06:50:00,
2013-06-22 08:00:00,51.3,48.4,29.26,East,93,1.0,2.0,90,0.00,CLR,,0.14,WeatherDisplay:10.37,2013-06-22 07:00:00,
2013-06-22 08:10:00,51.4,48.6,29.26,East,83,1.0,6.0,90,0.00,CLR,,0.14,WeatherDisplay:10.37,2013-06-22 07:10:00,
2013-06-22 08:20:00,52.2,49.6,29.25,ESE,107,2.0,4.0,91,0.00,CLR,,0.14,WeatherDisplay:10.37,2013-06-22 07:20:00,
2013-06-22 08:30:00,52.7,49.8,29.25,East,84,2.0,11.0,90,0.00,CLR,,0.14,WeatherDisplay:10.37,2013-06-22 07:30:00,
2013-06-22 08:40:00,53.1,50.2,29.25,SE,130,2.0,9.0,90,0.00,CLR,,0.14,WeatherDisplay:10.37,2013-06-22 07:40:00,
2013-06-22 08:50:00,52.5,49.7,29.24,East,101,8.0,16.0,90,0.02,RA,,0.16,WeatherDisplay:10.37,2013-06-22 07:50:00,
2013-06-22 09:00:00,52.0,49.1,29.25,SSW,206,13.0,14.0,90,0.00,CLR,,0.16,WeatherDisplay:10.37,2013-06-22 08:00:00,
2013-06-22 09:10:00,52.1,49.3,29.24,SW,217,7.0,12.0,90,0.00,CLR,,0.16,WeatherDisplay:10.37,2013-06-22 08:10:00,
2013-06-22 09:20:00,54.1,51.2,29.24,SW,221,8.0,12.0,90,0.00,CLR,,0.16,WeatherDisplay:10.37,2013-06-22 08:20:00,
2013-06-22 09:30:00,56.3,52.5,29.24,SW,217,9.0,13.0,87,0.00,CLR,,0.16,WeatherDisplay:10.37,2013-06-22 08:30:00,
2013-06-22 09:40:00,59.4,53.9,29.23,SW,225,3.0,13.0,82,0.00,CLR,,0.16,WeatherDisplay:10.37,2013-06-22 08:40:00,
2013-06-22 09:50:00,64.2,56.1,29.23,South,187,2.0,8.0,75,0.00,CLR,,0.16,WeatherDisplay:10.37,2013-06-22 08:50:00,
2013-06-22 10:00:00,66.5,55.2,29.22,South,174,5.0,6.0,67,0.00,CLR,,0.16,WeatherDisplay:10.37,2013-06-22 09:00:00,
2013-06-22 10:10:00,65.1,50.4,29.22,SSE,166,1.0,10.0,59,0.00,CLR,,0.16,WeatherDisplay:10.37,2013-06-22 09:10:00,
2013-06-22 10:20:00,61.7,47.2,29.22,SSW,211,5.0,13.0,59,0.00,CLR,,0.16,WeatherDisplay:10.37,2013-06-22 09:20:00,
2013-06-22 10:30:00,62.0,49.7,29.22,SW,234,5.0,9.0,64,0.00,CLR,,0.16,WeatherDisplay:10.37,2013-06-22 09:30:00,
2013-06-22 10:40:00,61.2,48.5,29.21,SSW,200,3.0,8.0,63,0.00,CLR,,0.16,WeatherDisplay:10.37,2013-06-22 09:40:00,
2013-06-22 10:50:00,58.9,46.3,29.21,SW,220,6.0,8.0,63,0.00,CLR,,0.16,WeatherDisplay:10.37,2013-06-22 09:50:00,
2013-06-22 11:00:00,56.9,45.7,29.21,SW,221,1.0,5.0,66,0.02,RA,,0.18,WeatherDisplay:10.37,2013-06-22 10:00:00,
2013-06-22 11:10:00,55.2,45.6,29.21,SSW,208,3.0,10.0,70,0.00,CLR,,0.18,WeatherDisplay:10.37,2013-06-22 10:10:00,
2013-06-22 11:20:00,55.6,47.8,29.21,WSW,243,3.0,10.0,75,0.00,CLR,,0.18,WeatherDisplay:10.37,2013-06-22 10:20:00,
2013-06-22 11:30:00,58.3,51.5,29.21,West,268,3.0,7.0,78,0.00,CLR,,0.18,WeatherDisplay:10.37,2013-06-22 10:30:00,
2013-06-22 11:40:00,60.9,52.9,29.20,WSW,255,3.0,8.0,75,0.00,CLR,,0.18,WeatherDisplay:10.37,2013-06-22 10:40:00,
2013-06-22 11:50:00,63.3,52.2,29.20,WSW,257,5.0,12.0,67,0.00,CLR,,0.18,WeatherDisplay:10.37,2013-06-22 10:50:00,
2013-06-22 12:00:00,62.1,48.0,29.21,SSW,213,3.0,17.0,60,0.02,RA,,0.20,WeatherDisplay:10.37,2013-06-22 11:00:00,
2013-06-22 12:10:00,59.2,47.4,29.21,SW,223,3.0,10.0,65,0.00,,,0.20,WeatherDisplay:10.37,2013-06-22 11:10:00,
2013-06-22 12:20:00,62.0,52.9,29.20,WSW,254,5.0,14.0,72,0.00,CLR,,0.20,WeatherDisplay:10.37,2013-06-22 11:20:00,
2013-06-22 12:30:00,62.7,49.5,29.20,West,267,3.0,14.0,62,0.00,CLR,,0.20,WeatherDisplay:10.37,2013-06-22 11:30:00,
2013-06-22 12:40:00,61.0,47.4,29.20,SW,219,6.0,11.0,61,0.00,CLR,,0.20,WeatherDisplay:10.37,2013-06-22 11:40:00,
2013-06-22 12:50:00,63.1,50.8,29.20,WSW,256,6.0,12.0,64,0.00,CLR,,0.20,WeatherDisplay:10.37,2013-06-22 11:50:00,
2013-06-22 13:00:00,62.2,46.3,29.20,WSW,254,5.0,14.0,56,0.00,CLR,,0.20,WeatherDisplay:10.37,2013-06-22 12:00:00,
2013-06-22 13:10:00,61.0,47.4,29.20,SW,214,2.0,12.0,61,0.00,CLR,,0.20,WeatherDisplay:10.37,2013-06-22 12:10:00,
2013-06-22 13:20:00,60.7,47.6,29.20,WSW,251,5.0,14.0,62,0.00,CLR,,0.20,WeatherDisplay:10.37,2013-06-22 12:20:00,
2013-06-22 13:30:00,62.9,50.1,29.19,WNW,285,6.0,10.0,63,0.00,CLR,,0.20,WeatherDisplay:10.37,2013-06-22 12:30:00,
2013-06-22 13:40:00,63.3,48.3,29.20,WSW,247,5.0,14.0,58,0.00,CLR,,0.20,WeatherDisplay:10.37,2013-06-22 12:40:00,
2013-06-22 13:50:00,63.3,48.3,29.19,WSW,249,3.0,14.0,58,0.00,CLR,,0.20,WeatherDisplay:10.37,2013-06-22 12:50:00,
2013-06-22 14:00:00,62.4,46.5,29.20,West,272,7.0,11.0,56,0.00,CLR,,0.20,WeatherDisplay:10.37,2013-06-22 13:00:00,
2013-06-22 14:10:00,62.5,47.5,29.19,West,267,3.0,12.0,58,0.00,CLR,,0.20,WeatherDisplay:10.37,2013-06-22 13:10:00,
2013-06-22 14:20:00,61.5,45.7,29.20,SW,235,2.0,10.0,56,0.00,CLR,,0.20,WeatherDisplay:10.37,2013-06-22 13:20:00,
2013-06-22 14:30:00,61.7,47.2,29.19,West,263,2.0,6.0,59,0.00,CLR,,0.20,WeatherDisplay:10.37,2013-06-22 13:30:00,
2013-06-22 14:40:00,64.3,49.7,29.19,West,263,6.0,13.0,59,0.00,CLR,,0.20,WeatherDisplay:10.37,2013-06-22 13:40:00,
2013-06-22 14:50:00,66.2,49.1,29.19,WSW,246,8.0,11.0,54,0.00,CLR,,0.20,WeatherDisplay:10.37,2013-06-22 13:50:00,
2013-06-22 15:00:00,63.5,44.5,29.19,WSW,239,5.0,14.0,50,0.00,CLR,,0.20,WeatherDisplay:10.37,2013-06-22 14:00:00,
2013-06-22 15:10:00,61.1,43.3,29.19,WSW,237,6.0,8.0,52,0.00,CLR,,0.20,WeatherDisplay:10.37,2013-06-22 14:10:00,
2013-06-22 15:20:00,59.9,43.7,29.19,WSW,250,1.0,9.0,55,0.00,CLR,,0.20,WeatherDisplay:10.37,2013-06-22 14:20:00,
2013-06-22 15:30:00,62.6,46.7,29.19,SSW,213,8.0,15.0,56,0.00,CLR,,0.20,WeatherDisplay:10.37,2013-06-22 14:30:00,
2013-06-22 15:40:00,63.0,46.6,29.18,SW,219,7.0,15.0,55,0.00,CLR,,0.20,WeatherDisplay:10.37,2013-06-22 14:40:00,
2013-06-22 15:50:00,63.5,45.5,29.19,WSW,251,3.0,12.0,52,0.00,CLR,,0.20,WeatherDisplay:10.37,2013-06-22 14:50:00,
2013-06-22 16:00:00,61.2,43.4,29.19,WSW,256,3.0,9.0,52,0.00,CLR,,0.20,WeatherDisplay:10.37,2013-06-22 15:00:00,
2013-06-22 16:10:00,58.8,43.1,29.19,West,276,7.0,15.0,56,0.00,CLR,,0.20,WeatherDisplay:10.37,2013-06-22 15:10:00,
2013-06-22 16:20:00,55.7,42.0,29.19,WNW,295,3.0,12.0,60,0.00,CLR,,0.20,WeatherDisplay:10.37,2013-06-22 15:20:00,
2013-06-22 16:30:00,56.4,45.5,29.19,WNW,290,3.0,9.0,67,0.00,CLR,,0.20,WeatherDisplay:10.37,2013-06-22 15:30:00,
2013-06-22 16:40:00,56.8,46.4,29.18,WNW,291,6.0,13.0,68,0.00,CLR,,0.20,WeatherDisplay:10.37,2013-06-22 15:40:00,
2013-06-22 16:50:00,57.4,46.9,29.18,West,275,1.0,9.0,68,0.00,CLR,,0.20,WeatherDisplay:10.37,2013-06-22 15:50:00,
2013-06-22 17:00:00,59.7,49.5,29.18,WSW,258,2.0,13.0,69,0.00,CLR,,0.20,WeatherDisplay:10.37,2013-06-22 16:00:00,
2013-06-22 17:10:00,61.0,48.7,29.19,WSW,243,3.0,9.0,64,0.00,CLR,,0.20,WeatherDisplay:10.37,2013-06-22 16:10:00,
2013-06-22 17:20:00,60.4,47.3,29.18,West,266,5.0,9.0,62,0.00,CLR,,0.20,WeatherDisplay:10.37,2013-06-22 16:20:00,
2013-06-22 17:30:00,60.4,46.9,29.18,WSW,258,1.0,8.0,61,0.00,CLR,,0.20,WeatherDisplay:10.37,2013-06-22 16:30:00,
2013-06-22 17:40:00,61.8,46.9,29.19,WSW,242,5.0,12.0,58,0.00,CLR,,0.20,WeatherDisplay:10.37,2013-06-22 16:40:00,
2013-06-22 17:50:00,60.5,45.2,29.19,West,272,2.0,9.0,57,0.00,CLR,,0.20,WeatherDisplay:10.37,2013-06-22 16:50:00,
2013-06-22 18:00:00,57.8,43.6,29.19,West,266,1.0,7.0,59,0.00,CLR,,0.20,WeatherDisplay:10.37,2013-06-22 17:00:00,
2013-06-22 18:10:00,56.3,43.8,29.19,WSW,253,1.0,3.0,63,0.02,RA,,0.22,WeatherDisplay:10.37,2013-06-22 17:10:00,
2013-06-22 18:20:00,55.0,43.9,29.19,WNW,289,1.0,4.0,66,0.00,,,0.22,WeatherDisplay:10.37,2013-06-22 17:20:00,
2013-06-22 18:30:00,54.5,43.8,29.19,WNW,292,1.0,2.0,67,0.00,CLR,,0.22,WeatherDisplay:10.37,2013-06-22 17:30:00,
2013-06-22 18:40:00,54.0,43.6,29.19,WNW,292,0.0,2.0,68,0.00,CLR,,0.22,WeatherDisplay:10.37,2013-06-22 17:40:00,
2013-06-22 18:50:00,53.1,43.2,29.19,West,281,0.0,4.0,69,0.04,RA,,0.26,WeatherDisplay:10.37,2013-06-22 17:50:00,
2013-06-22 19:00:00,53.0,44.2,29.19,West,270,0.0,2.0,72,0.00,CLR,,0.26,WeatherDisplay:10.37,2013-06-22 18:00:00,
2013-06-22 19:10:00,53.2,45.4,29.19,West,270,0.0,1.0,75,0.00,CLR,,0.26,WeatherDisplay:10.37,2013-06-22 18:10:00,
2013-06-22 19:20:00,53.7,46.3,29.19,WNW,295,1.0,2.0,76,0.00,CLR,,0.26,WeatherDisplay:10.37,2013-06-22 18:20:00,
2013-06-22 19:30:00,54.1,47.4,29.19,ENE,64,0.0,1.0,78,0.00,CLR,,0.26,WeatherDisplay:10.37,2013-06-22 18:30:00,
2013-06-22 19:40:00,53.4,46.3,29.20,West,264,3.0,8.0,77,0.02,RA,,0.28,WeatherDisplay:10.37,2013-06-22 18:40:00,
2013-06-22 19:50:00,52.3,45.7,29.20,WNW,296,1.0,5.0,78,0.02,RA,,0.30,WeatherDisplay:10.37,2013-06-22 18:50:00,
2013-06-22 20:00:00,52.0,45.3,29.19,NW,315,1.0,2.0,78,0.00,CLR,,0.30,WeatherDisplay:10.37,2013-06-22 19:00:00,
2013-06-22 20:10:00,51.4,45.1,29.20,WNW,297,0.0,5.0,79,0.00,CLR,,0.30,WeatherDisplay:10.37,2013-06-22 19:10:00,
2013-06-22 20:20:00,51.3,45.0,29.20,NW,305,1.0,2.0,79,0.00,CLR,,0.30,WeatherDisplay:10.37,2013-06-22 19:20:00,
2013-06-22 20:30:00,51.0,45.0,29.19,NW,315,0.0,2.0,80,0.00,CLR,,0.30,WeatherDisplay:10.37,2013-06-22 19:30:00,
2013-06-22 20:40:00,51.2,45.6,29.20,NW,315,0.0,2.0,81,0.00,CLR,,0.30,WeatherDisplay:10.37,2013-06-22 19:40:00,
2013-06-22 20:50:00,51.3,45.6,29.20,NW,312,1.0,3.0,81,0.00,CLR,,0.30,WeatherDisplay:10.37,2013-06-22 19:50:00,
2013-06-22 21:00:00,51.3,45.6,29.20,WNW,296,1.0,3.0,81,0.00,CLR,,0.30,WeatherDisplay:10.37,2013-06-22 20:00:00,
2013-06-22 21:10:00,51.3,46.0,29.21,WNW,289,1.0,5.0,82,0.00,CLR,,0.30,WeatherDisplay:10.37,2013-06-22 20:10:00,
2013-06-22 21:20:00,51.3,46.3,29.21,WNW,291,7.0,11.0,83,0.00,CLR,,0.30,WeatherDisplay:10.37,2013-06-22 20:20:00,
2013-06-22 21:30:00,51.1,46.1,29.22,WNW,301,7.0,10.0,83,0.00,CLR,,0.30,WeatherDisplay:10.37,2013-06-22 20:30:00,
2013-06-22 21:40:00,50.9,45.9,29.22,WNW,301,3.0,10.0,83,0.00,CLR,,0.30,WeatherDisplay:10.37,2013-06-22 20:40:00,
2013-06-22 21:50:00,50.7,46.1,29.23,NW,314,6.0,9.0,84,0.00,CLR,,0.30,WeatherDisplay:10.37,2013-06-22 20:50:00,
2013-06-22 22:00:00,50.5,45.6,29.22,NW,305,6.0,9.0,83,0.00,CLR,,0.30,WeatherDisplay:10.37,2013-06-22 21:00:00,
2013-06-22 22:10:00,50.5,45.9,29.23,WNW,296,6.0,9.0,84,0.00,CLR,,0.30,WeatherDisplay:10.37,2013-06-22 21:10:00,
2013-06-22 22:20:00,50.7,46.1,29.23,WNW,295,6.0,10.0,84,0.00,CLR,,0.30,WeatherDisplay:10.37,2013-06-22 21:20:00,
2013-06-22 22:30:00,50.7,46.4,29.23,WNW,299,6.0,12.0,85,0.00,CLR,,0.30,WeatherDisplay:10.37,2013-06-22 21:30:00,
2013-06-22 22:40:00,50.7,46.7,29.23,WNW,298,7.0,9.0,86,0.00,CLR,,0.30,WeatherDisplay:10.37,2013-06-22 21:40:00,
2013-06-22 22:50:00,50.7,46.7,29.23,WNW,295,8.0,12.0,86,0.00,CLR,,0.30,WeatherDisplay:10.37,2013-06-22 21:50:00,
2013-06-22 23:00:00,50.4,46.3,29.24,WNW,287,5.0,10.0,86,0.00,CLR,,0.30,WeatherDisplay:10.37,2013-06-22 22:00:00,
2013-06-22 23:10:00,49.5,45.4,29.24,WSW,249,2.0,7.0,86,0.00,CLR,,0.30,WeatherDisplay:10.37,2013-06-22 22:10:00,
2013-06-22 23:20:00,49.1,45.1,29.24,West,280,3.0,7.0,86,0.00,CLR,,0.30,WeatherDisplay:10.37,2013-06-22 22:20:00,
2013-06-22 23:30:00,48.7,45.0,29.24,West,268,5.0,6.0,87,0.00,CLR,,0.30,WeatherDisplay:10.37,2013-06-22 22:30:00,
2013-06-22 23:40:00,48.7,45.0,29.24,WSW,247,3.0,6.0,87,0.00,CLR,,0.30,WeatherDisplay:10.37,2013-06-22 22:40:00,
2013-06-22 23:50:00,49.4,45.7,29.25,WSW,253,3.0,6.0,87,0.00,CLR,,0.30,WeatherDisplay:10.37,2013-06-22 22:50:00,